When you browse on this site, cookies collect data to enhance your experience and personalize the content and advertising you see.
Visit our Privacy Policy to learn more. By continuing to use the site, you agree to this use of cookies and data.

Hourly Weather Le Bouscat

Today, 8 August, Saturday

Time Temperature Precipitation Wind Pressure Humidity
00:00 +21°C° 0 mm 2 mps 762 mmHg 89%
01:00 +21°C° 0 mm 2 mps 762 mmHg 90%
02:00 +21°C° 0 mm 2 mps 762 mmHg 91%
03:00 +21°C° 0 mm 2 mps 761 mmHg 92%
04:00 +21°C° 0 mm 2 mps 762 mmHg 92%
05:00 +21°C° 0 mm 2 mps 762 mmHg 91%
06:00 +21°C° 0 mm 2 mps 762 mmHg 89%
07:00 +24°C° 0 mm 2 mps 762 mmHg 80%
08:00 +26°C° 0 mm 3 mps 762 mmHg 70%
09:00 +28°C° 0 mm 3 mps 762 mmHg 61%
10:00 +30°C° 0 mm 3 mps 762 mmHg 54%
11:00 +33°C° 0 mm 3 mps 762 mmHg 48%
12:00 +34°C° 0 mm 2 mps 762 mmHg 41%
13:00 +34°C° 0 mm 3 mps 761 mmHg 41%
14:00 +35°C° 0 mm 3 mps 761 mmHg 40%
15:00 +35°C° 0 mm 3 mps 760 mmHg 40%
16:00 +33°C° 0 mm 3 mps 760 mmHg 46%
17:00 +31°C° 0 mm 3 mps 760 mmHg 51%
18:00 +29°C° 0 mm 3 mps 759 mmHg 57%
19:00 +27°C° 0 mm 3 mps 760 mmHg 64%
20:00 +25°C° 0 mm 2 mps 760 mmHg 70%
21:00 +23°C° 0 mm 2 mps 761 mmHg 77%
22:00 +23°C° 0 mm 2 mps 761 mmHg 80%
23:00 +21°C° 0 mm 2 mps 760 mmHg 82%

Tomorrow, 9 August, Sunday

Time Temperature Precipitation Wind Pressure Humidity
00:00 +22°C° 0 mm 1 mps 760 mmHg 85%
01:00 +21°C° 0 mm 1 mps 760 mmHg 85%
02:00 +19°C° 0 mm 0 mps 760 mmHg 85%
03:00 +19°C° 0 mm 0 mps 760 mmHg 86%
04:00 +19°C° 0 mm 0 mps 760 mmHg 85%
05:00 +22°C° 0 mm 1 mps 760 mmHg 85%
06:00 +22°C° 0 mm 1 mps 760 mmHg 84%
07:00 +24°C° 0.2 mm 1 mps 760 mmHg 77%
08:00 +25°C° 0.2 mm 1 mps 760 mmHg 71%
09:00 +25°C° 0.2 mm 0 mps 760 mmHg 64%
10:00 +27°C° 0 mm 0 mps 759 mmHg 59%
11:00 +28°C° 0 mm 0 mps 759 mmHg 53%
12:00 +32°C° 0 mm 1 mps 759 mmHg 48%
13:00 +33°C° 0 mm 1 mps 758 mmHg 43%
14:00 +35°C° 0 mm 1 mps 758 mmHg 39%
15:00 +36°C° 0 mm 1 mps 757 mmHg 35%
16:00 +35°C° 0 mm 1 mps 757 mmHg 39%
17:00 +35°C° 0 mm 2 mps 756 mmHg 42%
18:00 +34°C° 0 mm 2 mps 756 mmHg 46%
19:00 +30°C° 0.2 mm 2 mps 757 mmHg 54%
20:00 +28°C° 0.2 mm 1 mps 757 mmHg 63%
21:00 +25°C° 0.2 mm 1 mps 758 mmHg 71%
22:00 +25°C° 0.2 mm 1 mps 758 mmHg 75%
23:00 +24°C° 0.2 mm 1 mps 757 mmHg 80%

Day after tomorrow, 10 August, Monday

Time Temperature Precipitation Wind Pressure Humidity
00:00 +23°C° 0.2 mm 2 mps 757 mmHg 85%
01:00 +23°C° 0 mm 1 mps 757 mmHg 86%
02:00 +23°C° 0 mm 1 mps 757 mmHg 87%
03:00 +23°C° 0 mm 1 mps 756 mmHg 88%
04:00 +23°C° 0 mm 1 mps 756 mmHg 87%
05:00 +23°C° 0 mm 1 mps 756 mmHg 86%
06:00 +23°C° 0 mm 2 mps 756 mmHg 86%
07:00 +25°C° 0 mm 2 mps 757 mmHg 79%
08:00 +26°C° 0 mm 2 mps 757 mmHg 71%
09:00 +27°C° 0 mm 2 mps 757 mmHg 64%
10:00 +29°C° 0 mm 2 mps 757 mmHg 58%
11:00 +31°C° 0 mm 2 mps 757 mmHg 51%
12:00 +34°C° 0 mm 2 mps 757 mmHg 45%
13:00 +34°C° 0 mm 3 mps 757 mmHg 46%
14:00 +34°C° 0 mm 3 mps 756 mmHg 47%
15:00 +34°C° 0 mm 4 mps 756 mmHg 47%
16:00 +31°C° 0 mm 3 mps 756 mmHg 53%
17:00 +30°C° 0 mm 3 mps 756 mmHg 58%
18:00 +28°C° 0 mm 3 mps 755 mmHg 64%
19:00 +26°C° 0.1 mm 3 mps 756 mmHg 72%
20:00 +24°C° 0.1 mm 2 mps 756 mmHg 80%
21:00 +23°C° 0.1 mm 2 mps 757 mmHg 88%
22:00 +21°C° 1.2 mm 2 mps 757 mmHg 90%
23:00 +21°C° 1.2 mm 2 mps 757 mmHg 92%

11 August, Tuesday

Time Temperature Precipitation Wind Pressure Humidity
00:00 +21°C° 1.2 mm 2 mps 757 mmHg 94%
01:00 +22°C° 0 mm 1 mps 757 mmHg 94%
02:00 +21°C° 0 mm 1 mps 757 mmHg 94%
03:00 +21°C° 0 mm 1 mps 756 mmHg 93%
04:00 +21°C° 0 mm 1 mps 756 mmHg 93%
05:00 +22°C° 0 mm 1 mps 756 mmHg 93%
06:00 +22°C° 0 mm 1 mps 756 mmHg 93%
07:00 +24°C° 0 mm 1 mps 757 mmHg 84%
08:00 +24°C° 0 mm 0 mps 757 mmHg 75%
09:00 +27°C° 0 mm 0 mps 757 mmHg 66%
10:00 +29°C° 0 mm 0 mps 757 mmHg 58%
11:00 +33°C° 0 mm 1 mps 757 mmHg 51%
12:00 +34°C° 0 mm 1 mps 756 mmHg 43%
13:00 +35°C° 0 mm 1 mps 756 mmHg 40%
14:00 +36°C° 0 mm 1 mps 755 mmHg 37%
15:00 +37°C° 0 mm 1 mps 755 mmHg 34%
16:00 +37°C° 0 mm 2 mps 755 mmHg 39%
17:00 +35°C° 0 mm 3 mps 755 mmHg 44%
18:00 +33°C° 0 mm 3 mps 755 mmHg 50%
19:00 +30°C° 0.8 mm 3 mps 755 mmHg 60%
20:00 +27°C° 0.8 mm 2 mps 756 mmHg 71%
21:00 +24°C° 0.8 mm 2 mps 756 mmHg 82%
22:00 +24°C° 0 mm 2 mps 756 mmHg 83%
23:00 +24°C° 0 mm 1 mps 757 mmHg 84%

12 August, Wednesday

Time Temperature Precipitation Wind Pressure Humidity
00:00 +23°C° 0 mm 1 mps 757 mmHg 85%
01:00 +23°C° 0 mm 1 mps 757 mmHg 86%
02:00 +23°C° 0 mm 1 mps 756 mmHg 87%
03:00 +23°C° 0 mm 1 mps 756 mmHg 88%
04:00 +22°C° 0 mm 1 mps 756 mmHg 88%
05:00 +22°C° 0 mm 1 mps 756 mmHg 87%
06:00 +21°C° 0 mm 2 mps 757 mmHg 87%
07:00 +24°C° 0 mm 2 mps 757 mmHg 80%
08:00 +25°C° 0 mm 3 mps 757 mmHg 73%
09:00 +27°C° 0 mm 3 mps 757 mmHg 66%
10:00 +28°C° 0.1 mm 4 mps 757 mmHg 61%
11:00 +29°C° 0.1 mm 4 mps 758 mmHg 56%
12:00 +30°C° 0.1 mm 4 mps 758 mmHg 51%
13:00 +30°C° 0 mm 4 mps 758 mmHg 52%
14:00 +29°C° 0 mm 4 mps 758 mmHg 53%
15:00 +29°C° 0 mm 5 mps 758 mmHg 54%
16:00 +28°C° 0 mm 5 mps 758 mmHg 59%
17:00 +26°C° 0 mm 5 mps 758 mmHg 65%
18:00 +25°C° 0 mm 5 mps 758 mmHg 70%
19:00 +23°C° 0 mm 4 mps 759 mmHg 75%
20:00 +22°C° 0 mm 3 mps 760 mmHg 79%
21:00 +20°C° 0 mm 3 mps 760 mmHg 84%
22:00 +20°C° 0 mm 2 mps 760 mmHg 81%
23:00 +21°C° 0 mm 2 mps 760 mmHg 78%

13 August, Thursday

Time Temperature Precipitation Wind Pressure Humidity
00:00 +21°C° 0 mm 2 mps 761 mmHg 74%
01:00 +21°C° 0 mm 2 mps 760 mmHg 74%
02:00 +21°C° 0 mm 2 mps 760 mmHg 74%
03:00 +22°C° 0 mm 1 mps 760 mmHg 74%
04:00 +21°C° 0 mm 1 mps 760 mmHg 75%
05:00 +21°C° 0 mm 1 mps 760 mmHg 76%
06:00 +21°C° 0 mm 1 mps 760 mmHg 78%
07:00 +23°C° 0 mm 1 mps 760 mmHg 71%
08:00 +24°C° 0 mm 1 mps 761 mmHg 64%
09:00 +25°C° 0 mm 1 mps 761 mmHg 58%
10:00 +26°C° 0 mm 1 mps 761 mmHg 55%
11:00 +26°C° 0 mm 1 mps 760 mmHg 52%
12:00 +27°C° 0 mm 1 mps 760 mmHg 49%
13:00 +27°C° 0 mm 1 mps 760 mmHg 49%
14:00 +27°C° 0 mm 2 mps 760 mmHg 49%
15:00 +27°C° 0 mm 2 mps 759 mmHg 49%
16:00 +27°C° 0 mm 2 mps 759 mmHg 51%
17:00 +26°C° 0 mm 2 mps 759 mmHg 54%
18:00 +25°C° 0 mm 3 mps 759 mmHg 57%
19:00 +24°C° 0 mm 3 mps 759 mmHg 63%
20:00 +21°C° 0 mm 2 mps 759 mmHg 70%
21:00 +19°C° 0 mm 2 mps 759 mmHg 76%
22:00 +19°C° 0 mm 2 mps 759 mmHg 78%
23:00 +18°C° 0 mm 2 mps 758 mmHg 80%
Show more